This is the latest recevied weather packets stored in our database for station/object KD8BMB. If no packets are shown the sender has not sent any weather packets the latest 10 day(s).
| Time | Temp. | Humidity | Pressure | Rain* | Wind** | Luminosity | Snow |
|---|---|---|---|---|---|---|---|
| 1777975675 | 9.44° C | 87% | 1001.3 hPa | 0 mm | - | 0 W/m² | - |
| 1777975372 | 10° C | 87% | 1001.2 hPa | 0 mm | - | 0 W/m² | - |
| 1777975068 | 10° C | 86% | 1001 hPa | 0 mm | - | 0 W/m² | - |
| 1777974766 | 11.11° C | 85% | 1000.9 hPa | 0 mm | - | 0 W/m² | - |
| 1777974461 | 12.22° C | 85% | 1000.5 hPa | 0 mm | - | 0 W/m² | - |
| 1777974158 | 13.89° C | 89% | 1000.3 hPa | 0 mm | - | 0 W/m² | - |
| 1777973854 | 13.89° C | 89% | 1000.4 hPa | 0 mm | - | 0 W/m² | - |
| 1777973552 | 13.89° C | 88% | 1000.2 hPa | 0 mm | - | 0 W/m² | - |
| 1777973248 | 13.89° C | 88% | 1000 hPa | 0 mm | - | 0 W/m² | - |
| 1777972947 | 13.89° C | 88% | 999.8 hPa | 0 mm | - | 0 W/m² | - |
| 1777972644 | 13.89° C | 88% | 999.9 hPa | 0 mm | - | 0 W/m² | - |
| 1777972342 | 14.44° C | 88% | 999.8 hPa | 0 mm | - | 0 W/m² | - |
| 1777972039 | 14.44° C | 88% | 999.8 hPa | 0 mm | - | 0 W/m² | - |
| 1777971738 | 14.44° C | 87% | 999.8 hPa | 0 mm | - | 0 W/m² | - |
| 1777971434 | 14.44° C | 87% | 1000 hPa | 0 mm | - | 0 W/m² | - |
| 1777971133 | 14.44° C | 87% | 999.8 hPa | 0 mm | - | 0 W/m² | - |
| 1777970829 | 14.44° C | 86% | 999.7 hPa | 0 mm | - | 0 W/m² | - |
| 1777970529 | 15° C | 86% | 999.7 hPa | 0 mm | - | 0 W/m² | - |
| 1777970225 | 15° C | 86% | 999.6 hPa | 0 mm | - | 0 W/m² | - |
| 1777969922 | 15° C | 85% | 999.5 hPa | 0 mm | - | 0 W/m² | - |
| 1777969617 | 15° C | 85% | 999.5 hPa | 0 mm | - | 0 W/m² | - |
| 1777969315 | 15° C | 85% | 999.5 hPa | 0 mm | - | 0 W/m² | - |
| 1777969010 | 15° C | 84% | 999.2 hPa | 0 mm | - | 0 W/m² | - |
| 1777968709 | 15° C | 84% | 999.2 hPa | 0 mm | - | 0 W/m² | - |
| 1777968405 | 15° C | 84% | 999.4 hPa | 0 mm | - | 0 W/m² | - |
* Rain latest hour (hover to see other rain measurements)
** Current wind speed in m/s (hover to see current wind gust speed)